This demonstration page uses our WeatherBlox Daily Observations layout. Learn more.

Left ArrowRight Arrow

Hourly Observations for January 27, 2016

Temp ( °F °C ) Dew Point ( °F °C ) Humidity (%) Winds ( mph kmh ) Pressure ( in mb ) Visibility ( mi km ) Precip ( " mm )
12:23 am 00:23 Mostly Cloudy 34 1.1 33 0.6 97 97 W 5 7 30.45 1031 10 16 0.00 0.00
12:53 am 00:53 Partly Cloudy 35 1.7 32 0 89 89 W 7 11 30.36 1028 10 16 0.00 0.00
1:15 am 01:15 Mostly Cloudy 35 1.7 33 0.6 93 93 WNW 7 11 30.45 1031 10 16 0.00 0.00
1:53 am 01:53 Cloudy 37 2.8 34 1.1 89 89 W 7 11 30.35 1028 10 16 0.00 0.00
2:17 am 02:17 Cloudy 37 2.8 34 1.1 89 89 WNW 7 11 30.42 1030 10 16 0.00 0.00
2:33 am 02:33 Cloudy 37 2.8 34 1.1 89 89 WNW 6 9 30.42 1030 8 13 0.00 0.00
2:53 am 02:53 Cloudy 36 2.2 34 1.1 93 93 NW 5 7 30.35 1028 7 11 0.00 0.00
3:53 am 03:53 Partly Cloudy with Mist and Fog 32 0 30 -1.1 92 92 N 7 11 30.36 1028 5 8 0.00 0.00
4:53 am 04:53 Clear with Mist and Fog 30 -1.1 28 -2.2 92 92 Calm 30.37 1029 5 8 0.00 0.00
5:53 am 05:53 Clear with Mist and Fog 28 -2.2 27 -2.8 96 96 NW 3 6 30.37 1028 3 5 0.00 0.00
6:34 am 06:34 Mostly Clear 27 -3 25 -4 93 93 Calm 30.50 1033 7 11 0.00 0.00
6:53 am 06:53 Mostly Cloudy with Mist and Fog 27 -2.8 25 -3.9 92 92 W 3 6 30.38 1029 4 6 0.00 0.00
7:14 am 07:14 Cloudy with Freezing Fog 28 -2 25 -4 86 86 SSW 5 7 30.48 1032 0 0 0.00 0.00
7:53 am 07:53 Mostly Cloudy with Freezing Fog 28 -2.2 27 -2.8 96 96 Calm 30.40 1029 0 0 0.00 0.00
8:53 am 08:53 Mostly Cloudy with Freezing Fog 29 -1.7 28 -2.2 96 96 Calm 30.39 1029 5 8 0.00 0.00
9:53 am 09:53 Mostly Cloudy with Fog 32 0 31 -0.6 96 96 Calm 30.40 1030 0 0 0.00 0.00
10:18 am 10:18 Cloudy with Mist and Fog 34 1 34 1 100 100 SSW 3 6 30.48 1032 1 2 0.00 0.00
10:27 am 10:27 Mostly Cloudy with Mist and Fog 36 2.2 35 1.7 97 97 SSW 3 6 30.48 1032 3 5 0.00 0.00
10:42 am 10:42 Partly Cloudy 39 4 36 2 87 87 SSW 5 7 30.45 1031 10 16 0.00 0.00
10:53 am 10:53 Sunny 40 4.4 35 1.7 83 83 SW 3 6 30.39 1029 10 16 0.00 0.00
11:53 am 11:53 Sunny 47 8.3 33 0.6 59 59 WSW 6 9 30.35 1028 10 16 0.00 0.00
12:53 pm 12:53 Sunny 49 9.4 31 -0.6 50 50 SW 9 15 30.31 1026 10 16 0.00 0.00
1:53 pm 13:53 Sunny 51 10.6 30 -1.1 44 44 SW 6 9 30.27 1025 10 16 0.00 0.00
2:53 pm 14:53 Sunny 53 11.7 32 0 45 45 VRB 7 11 30.23 1024 10 16 0.00 0.00
3:53 pm 15:53 Sunny 54 12.2 30 -1.1 40 40 SW 10 17 30.21 1023 10 16 0.00 0.00
4:53 pm 16:53 Sunny 54 12.2 31 -0.6 42 42 SW 6 9 30.20 1023 10 16 0.00 0.00
5:53 pm 17:53 Sunny 53 11.7 32 0 45 45 S 8 13 30.19 1022 10 16 0.00 0.00
6:53 pm 18:53 Clear 45 7.2 31 -0.6 58 58 SSE 8 13 30.21 1023 10 16 0.00 0.00
7:53 pm 19:53 Clear 41 5 32 0 70 70 SSE 8 13 30.22 1023 10 16 0.00 0.00
8:53 pm 20:53 Clear 38 3.3 32 0 79 79 SSE 9 15 30.23 1024 10 16 0.00 0.00
9:53 pm 21:53 Clear 37 2.8 31 -0.6 79 79 SSE 8 13 30.23 1024 10 16 0.00 0.00
10:53 pm 22:53 Clear 36 2.2 30 -1.1 79 79 SE 5 7 30.22 1023 10 16 0.00 0.00
11:53 pm 23:53 Clear 33 0.6 29 -1.7 85 85 SE 6 9 30.21 1023 10 16 0.00 0.00

Powered by AerisWeather